星链-11585 (STARLINK-11585)

导读 | 豆包AI

STARLINK-11585是美国SpaceX星链星座的一颗低轨互联网卫星,于2025年3月18日,在美国佛罗里达州东试验靶场发射升空,目前运行状态正常。该卫星运行在平均高度约363.5千米近地轨道,轨道倾角43°,轨道周期约91.67分钟,隶属于全球星链星座组网,为全球提供高速卫星互联网接入服务,由美国太空探索技术公司研制并运营。

基本信息
目录编号:
63309
目录名称:
STARLINK-11585
国际标识:
2025-057C
轨道中心:
EARTH
卫星名称:
星链-11585
卫星全名:
星链-11585 (STARLINK-11585)
卫星状态:
在轨 (已飞行408 天)
发射日期:
2025-03-18 UTC
国别 :
美国 (US)
星等 :
--
轨道信息
数据来源 国际轨道数据
星历时间: 2026-04-30T05:35:45+0800
6小时前
查看轨道信息
半长轴: 6734.489km
偏心率: 0.000267
轨道倾角: 43.001°
近地点辐角 284.843°
升交点赤经 315.672°
平近点角 75.214°
近地点: 354.553km
远地点: 358.151km
周期: 91.668分钟
每日圈数: 15.708903
详细信息
固有亮度:
5
最大亮度:
2.5
卫星平台:
Starlink V1.0
覆盖范围:
全球
运营商:
太空探索技术公司
运营商所在国:
美国
制造商(研发单位):
太空探索技术公司
制造商所在国:
美国
使用方式:
暂无
卫星简介
Starlink 计划是 SpaceX 推出的全球卫星互联网项目,通过发射低轨道卫星,为全球尤其是偏远地区提供高速、低延迟的互联网服务。自 2019 年起,Starlink 已部署数千颗卫星,旨在缩小全球数字鸿沟,推动互联网普及。该项目还为军事、航空等行业提供通信支持,带来广泛经济效益。
2D轨道图
3D轨道图
轨道高度分析图
轨道倾角分析图
轨道综合分析图
查看轨道综合分析图